Location: West Cummington
(42.4920°N, 72.9680°W)
Time: 23:39:35
(UTC-04:00)

ATLAS 2AS CENTAUR R/B - Visible Passes

Search period start: 01 May 2016 00:00
Search period end: 11 May 2016 00:00
Orbit: 904 x 1308 km, 63.7° (Epoch: 29 April)

Date Brightness Start Highest point End Pass type
(mag) Time Alt. Az. Time Alt. Az. Time Alt. Az.
01 May 3.7 20:17:19 10° NNW 20:25:06 45° NE 20:32:30 10° ESE visible
01 May 3.5 22:08:33 10° NW 22:16:19 52° WSW 22:20:17 28° S visible
02 May 3.1 21:23:32 10° NW 21:31:40 77° WSW 21:37:14 21° SSE visible
02 May 4.9 23:17:00 10° WNW 23:21:20 16° WSW 23:24:41 12° SW visible
03 May 3.1 20:38:39 10° NNW 20:46:51 76° NE 20:54:12 11° SE visible
03 May 4.5 22:30:48 10° NW 22:37:06 26° WSW 22:41:40 15° SSW visible
04 May 4.0 21:45:20 10° NW 21:52:42 40° WSW 21:58:42 14° S visible
05 May 3.5 21:00:12 10° NW 21:08:09 61° WSW 21:15:36 10° SSE visible
05 May 5.2 22:55:38 10° W 22:57:30 11° W 22:59:20 10° WSW visible
06 May 3.2 20:15:15 10° NW 20:23:26 88° SW 20:31:05 10° SSE visible
06 May 4.9 22:08:03 10° WNW 22:13:20 20° WSW 22:18:25 10° SSW visible
07 May 4.5 21:22:14 10° NW 21:29:02 31° WSW 21:35:28 10° SSW visible
08 May 3.9 20:36:56 10° NW 20:44:35 48° WSW 20:51:45 10° S visible
09 May 5.2 21:45:46 10° WNW 21:49:31 14° W 21:53:11 10° SW visible
10 May 4.9 20:59:18 10° WNW 21:05:19 24° WSW 21:11:03 10° SSW visible
